Independence, KS

7:26 PM CDT on August 25, 2016 (GMT -0500)
Independence Municipal

Weather History for KIDP - March, 2013

Change the Weather History Date:

Friday, March 1, 2013

  Actual Average (KCFV) Record (KCFV)
Temperature  
Mean Temperature 31 °F -  
Max Temperature 32 °F 48 °F 90 °F (2006)
Min Temperature 30 °F 29 °F 15 °F (2009)
Degree Days  
Heating Degree Days 34    
Moisture  
Dew Point 24 °F    
Average Humidity 74    
Maximum Humidity 87    
Minimum Humidity 69    
Precipitation  
Precipitation 0.00 in - - ()
Sea Level Pressure  
Sea Level Pressure 30.27 in    
Wind  
Wind Speed 10 mph (NNW)    
Max Wind Speed 16 mph    
Max Gust Speed 22 mph    
Visibility 10 miles    
Events      
Averages and records for this station are not official NWS values.
T = Trace of Precipitation, MM = Missing Value Source: NWS Daily Summary

Daily Weather History Graph

Daily Weather History Graph

Search for Another Location

Airport or City:

Trip Planner

Search our weather history database for the weather conditions in past years. The results will help you decide how hot, cold, wet, or windy it might be!

Date:

Astronomy

Mar. 01, 2013 Rise Set
Actual Time 6:53 AM CST 6:17 PM CST
Civil Twilight 6:27 AM CST 6:43 PM CST
Nautical Twilight 5:57 AM CST 7:13 PM CST
Astronomical Twilight 5:27 AM CST 7:43 PM CST
Moon 10:44 PM CST (3/1) 8:47 AM CST (3/1)
Length of Visible Light 12h 15m
Length of Day
11h 23m
Waning Gibbous, 83% of the Moon is Illuminated
Mar 1
Waning Gibbous
Mar 4
Last Quarter
Mar 11
New
Mar 19
First Quarter
Mar 27
Full

Hourly Weather History & Observations

Time (CST) Temp. Windchill Dew Point Humidity Pressure Visibility Wind Dir Wind Speed Gust Speed Precip Events Conditions
12:15 AM 32.0 °F 25.6 °F 28.4 °F 87% 30.21 in 10.0 mi NW 6.9 mph - N/A   Overcast
12:35 AM 32.0 °F 25.6 °F 26.6 °F 80% 30.21 in 10.0 mi NW 6.9 mph - N/A   Overcast
1:15 AM 32.0 °F 25.6 °F 26.6 °F 80% 30.21 in 10.0 mi NW 6.9 mph - N/A   Overcast
1:35 AM 32.0 °F 24.8 °F 26.6 °F 80% 30.21 in 10.0 mi NW 8.1 mph - N/A   Overcast
1:55 AM 32.0 °F 24.8 °F 26.6 °F 80% 30.21 in 10.0 mi NW 8.1 mph - N/A   Overcast
2:15 AM 32.0 °F 24.2 °F 26.6 °F 80% 30.21 in 10.0 mi NNW 9.2 mph - N/A   Overcast
2:35 AM 32.0 °F 24.2 °F 26.6 °F 80% 30.20 in 10.0 mi NNW 9.2 mph - N/A   Overcast
2:55 AM 32.0 °F 23.6 °F 26.6 °F 80% 30.20 in 10.0 mi NNW 10.4 mph - N/A   Overcast
3:15 AM 32.0 °F 23.0 °F 24.8 °F 75% 30.20 in 10.0 mi NNW 11.5 mph - N/A   Overcast
3:55 AM 32.0 °F 23.0 °F 26.6 °F 80% 30.21 in 10.0 mi NNW 11.5 mph - N/A   Overcast
4:15 AM 32.0 °F 23.6 °F 26.6 °F 80% 30.22 in 10.0 mi NNW 10.4 mph - N/A   Overcast
4:35 AM 32.0 °F 27.5 °F 26.6 °F 80% 30.21 in 10.0 mi NNW 4.6 mph - N/A   Overcast
4:55 AM 32.0 °F 24.8 °F 26.6 °F 80% 30.22 in 10.0 mi North 8.1 mph - N/A   Overcast
5:15 AM 32.0 °F 24.2 °F 26.6 °F 80% 30.21 in 10.0 mi North 9.2 mph - N/A   Overcast
5:35 AM 32.0 °F 24.2 °F 26.6 °F 80% 30.22 in 10.0 mi NNW 9.2 mph - N/A   Overcast
6:15 AM 32.0 °F 21.2 °F 24.8 °F 75% 30.22 in 10.0 mi NNW 16.1 mph - N/A   Overcast
6:35 AM 32.0 °F 22.1 °F 24.8 °F 75% 30.22 in 10.0 mi NNW 13.8 mph - N/A   Overcast
6:55 AM 32.0 °F 22.1 °F 26.6 °F 80% 30.22 in 10.0 mi NNW 13.8 mph 21.9 mph N/A   Overcast
7:15 AM 32.0 °F 23.0 °F 26.6 °F 80% 30.23 in 10.0 mi North 11.5 mph - N/A   Overcast
7:35 AM 32.0 °F 22.1 °F 24.8 °F 75% 30.24 in 10.0 mi North 13.8 mph - N/A   Overcast
7:55 AM 32.0 °F 23.6 °F 24.8 °F 75% 30.25 in 10.0 mi North 10.4 mph - N/A   Overcast
8:15 AM 32.0 °F 24.2 °F 26.6 °F 80% 30.26 in 10.0 mi North 9.2 mph - N/A   Overcast
8:35 AM 30.2 °F 19.8 °F 24.8 °F 80% 30.26 in 10.0 mi North 13.8 mph - N/A   Overcast
8:55 AM 30.2 °F 20.2 °F 23.0 °F 75% 30.27 in 10.0 mi North 12.7 mph - N/A   Overcast
9:15 AM 30.2 °F 19.8 °F 23.0 °F 75% 30.27 in 10.0 mi North 13.8 mph - N/A   Overcast
9:35 AM 32.0 °F 23.0 °F 24.8 °F 75% 30.27 in 10.0 mi North 11.5 mph - N/A   Overcast
10:15 AM 32.0 °F 23.6 °F 23.0 °F 69% 30.27 in 10.0 mi North 10.4 mph - N/A   Overcast
10:35 AM 32.0 °F 24.2 °F 23.0 °F 69% 30.27 in 10.0 mi North 9.2 mph - N/A   Overcast
10:55 AM 32.0 °F 23.0 °F 23.0 °F 69% 30.28 in 10.0 mi North 11.5 mph 16.1 mph N/A   Overcast
11:15 AM 32.0 °F 23.0 °F 24.8 °F 75% 30.28 in 10.0 mi North 11.5 mph 17.3 mph N/A   Overcast
11:35 AM 32.0 °F 23.0 °F 23.0 °F 69% 30.28 in 10.0 mi North 11.5 mph 17.3 mph N/A   Overcast
12:15 PM 32.0 °F 22.1 °F 23.0 °F 69% 30.29 in 10.0 mi North 13.8 mph - N/A   Overcast
12:35 PM 32.0 °F 21.6 °F 23.0 °F 69% 30.28 in 10.0 mi North 15.0 mph 19.6 mph N/A   Overcast
12:55 PM 32.0 °F 22.1 °F 23.0 °F 69% 30.27 in 10.0 mi North 13.8 mph 19.6 mph N/A   Overcast
1:15 PM 32.0 °F 22.1 °F 23.0 °F 69% 30.27 in 10.0 mi NNW 13.8 mph - N/A   Overcast
1:35 PM 32.0 °F 22.5 °F 23.0 °F 69% 30.27 in 10.0 mi North 12.7 mph - N/A   Overcast
1:55 PM 32.0 °F 23.6 °F 23.0 °F 69% 30.27 in 10.0 mi NNW 10.4 mph - N/A   Overcast
2:15 PM 32.0 °F 23.6 °F 23.0 °F 69% 30.26 in 10.0 mi North 10.4 mph - N/A   Overcast
2:35 PM 32.0 °F 23.0 °F 23.0 °F 69% 30.26 in 10.0 mi North 11.5 mph - N/A   Overcast
2:55 PM 32.0 °F 24.2 °F 23.0 °F 69% 30.26 in 10.0 mi North 9.2 mph - N/A   Overcast
3:15 PM 32.0 °F 23.6 °F 23.0 °F 69% 30.26 in 10.0 mi North 10.4 mph - N/A   Overcast
3:35 PM 32.0 °F 23.0 °F 23.0 °F 69% 30.26 in 10.0 mi North 11.5 mph - N/A   Overcast
3:55 PM 32.0 °F 23.0 °F 23.0 °F 69% 30.26 in 10.0 mi NNW 11.5 mph - N/A   Overcast
4:15 PM 32.0 °F 22.1 °F 23.0 °F 69% 30.27 in 10.0 mi North 13.8 mph - N/A   Overcast
4:35 PM 30.2 °F 19.3 °F 23.0 °F 75% 30.27 in 10.0 mi North 15.0 mph 18.4 mph N/A   Overcast
4:55 PM 30.2 °F 20.2 °F 23.0 °F 75% 30.27 in 10.0 mi North 12.7 mph - N/A   Overcast
5:15 PM 30.2 °F 20.8 °F 23.0 °F 75% 30.28 in 10.0 mi NNW 11.5 mph - N/A   Overcast
5:35 PM 30.2 °F 20.8 °F 23.0 °F 75% 30.28 in 10.0 mi North 11.5 mph - N/A   Overcast
5:55 PM 30.2 °F 21.3 °F 21.2 °F 69% 30.28 in 10.0 mi North 10.4 mph - N/A   Overcast
6:15 PM 30.2 °F 20.2 °F 21.2 °F 69% 30.29 in 10.0 mi North 12.7 mph - N/A   Overcast
6:35 PM 30.2 °F 20.2 °F 21.2 °F 69% 30.29 in 10.0 mi NNW 12.7 mph - N/A   Overcast
6:55 PM 30.2 °F 20.8 °F 21.2 °F 69% 30.30 in 10.0 mi North 11.5 mph - N/A   Overcast
7:15 PM 30.2 °F 21.9 °F 21.2 °F 69% 30.30 in 10.0 mi North 9.2 mph - N/A   Overcast
7:35 PM 30.2 °F 20.2 °F 21.2 °F 69% 30.31 in 10.0 mi NNW 12.7 mph - N/A   Overcast
7:55 PM 30.2 °F 19.3 °F 21.2 °F 69% 30.32 in 10.0 mi NNW 15.0 mph - N/A   Overcast
8:15 PM 30.2 °F 20.8 °F 23.0 °F 75% 30.32 in 10.0 mi NNW 11.5 mph - N/A   Overcast
8:35 PM 30.2 °F 21.3 °F 23.0 °F 75% 30.32 in 10.0 mi NNW 10.4 mph - N/A   Overcast
8:55 PM 30.2 °F 21.9 °F 23.0 °F 75% 30.32 in 10.0 mi North 9.2 mph - N/A   Overcast
9:15 PM 30.2 °F 20.2 °F 23.0 °F 75% 30.32 in 10.0 mi North 12.7 mph - N/A   Overcast
9:35 PM 30.2 °F 21.3 °F 23.0 °F 75% 30.32 in 10.0 mi NNW 10.4 mph 17.3 mph N/A   Overcast
9:55 PM 30.2 °F 20.8 °F 23.0 °F 75% 30.32 in 10.0 mi North 11.5 mph - N/A   Overcast
10:15 PM 30.2 °F 20.8 °F 23.0 °F 75% 30.33 in 10.0 mi NNW 11.5 mph - N/A   Overcast
10:35 PM 30.2 °F 20.2 °F 23.0 °F 75% 30.33 in 10.0 mi North 12.7 mph - N/A   Overcast
10:55 PM 30.2 °F 20.8 °F 21.2 °F 69% 30.33 in 10.0 mi North 11.5 mph - N/A   Overcast
11:15 PM 30.2 °F 21.3 °F 21.2 °F 69% 30.33 in 10.0 mi North 10.4 mph - N/A   Overcast
11:35 PM 30.2 °F 21.3 °F 21.2 °F 69% 30.33 in 10.0 mi North 10.4 mph - N/A   Overcast
11:55 PM 30.2 °F 21.3 °F 21.2 °F 69% 30.33 in 10.0 mi North 10.4 mph - N/A   Overcast